London-Corbin, KY

1:57 PM EDT on October 17, 2017 (GMT -0400)
London-Corbin / McKee

Weather History for KLOZ - March, 2013

Change the Weather History Date:

Tuesday, March 5, 2013

  Actual Average Record
Temperature  
Mean Temperature 40 °F 44 °F  
Max Temperature 49 °F 55 °F 77 °F (1983)
Min Temperature 30 °F 33 °F -5 °F (1960)
Degree Days  
Heating Degree Days 25 21  
Month to date heating degree days 160 107  
Since 1 July heating degree days 3508 3383  
Cooling Degree Days 0 0  
Month to date cooling degree days 0 0  
Year to date cooling degree days 0 0  
Moisture  
Dew Point 38 °F    
Average Humidity 75    
Maximum Humidity 100    
Minimum Humidity 49    
Precipitation  
Precipitation 1.68 in 0.13 in 2.91 in (1989)
Month to date precipitation 1.74 0.67  
Year to date precipitation 8.53  
Sea Level Pressure  
Sea Level Pressure 29.77 in    
Wind  
Wind Speed 9 mph (South)    
Max Wind Speed 37 mph    
Max Gust Speed 51 mph    
Visibility 5 miles    
Events Rain , Snow    
T = Trace of Precipitation, MM = Missing Value Source: NWS Daily Summary

Daily Weather History Graph

Daily Weather History Graph

Search for Another Location

Airport or City:

Trip Planner

Search our weather history database for the weather conditions in past years. The results will help you decide how hot, cold, wet, or windy it might be!

Date:

Astronomy

Mar. 05, 2013 Rise Set
Actual Time 7:01 AM EST 6:34 PM EST
Civil Twilight 6:35 AM EST 7:00 PM EST
Nautical Twilight 6:05 AM EST 7:30 PM EST
Astronomical Twilight 5:35 AM EST 8:00 PM EST
Moon 2:06 AM EST (3/5) 12:18 PM EST (3/5)
Length of Visible Light 12h 25m
Length of Day
11h 33m
Last Quarter, 41% of the Moon is Illuminated
Mar 5
Last Quarter
Mar 11
New
Mar 19
First Quarter
Mar 27
Full
Apr 3
Last Quarter

Hourly Weather History & Observations

Time (EST) Temp. Windchill Dew Point Humidity Pressure Visibility Wind Dir Wind Speed Gust Speed Precip Events Conditions
12:53 AM 41.0 °F 37.1 °F 27.0 °F 57% 29.97 in 10.0 mi SE 5.8 mph - N/A   Overcast
2:53 AM 44.1 °F 42.5 °F 26.1 °F 49% 29.93 in 10.0 mi SSE 3.5 mph - N/A   Overcast
4:53 AM 44.1 °F 41.5 °F 28.9 °F 55% 29.91 in 10.0 mi South 4.6 mph - 0.00 in   Overcast
5:53 AM 39.9 °F 37.8 °F 36.0 °F 86% 29.92 in 3.0 mi SE 3.5 mph - 0.11 in Rain Heavy Rain
6:05 AM 39.2 °F 37.0 °F 37.4 °F 93% 29.91 in 6.0 mi ESE 3.5 mph - 0.03 in Rain Rain
6:45 AM 39.2 °F 35.9 °F 37.4 °F 93% 29.91 in 5.0 mi SSE 4.6 mph - 0.13 in Rain Rain
6:53 AM 39.9 °F 37.8 °F 37.9 °F 93% 29.91 in 7.0 mi SE 3.5 mph - 0.14 in Rain Light Rain
7:34 AM 39.2 °F 35.0 °F 37.4 °F 93% 29.89 in 5.0 mi ESE 5.8 mph - 0.10 in Rain Rain
8:01 AM 39.2 °F 34.2 °F 37.4 °F 93% 29.88 in 3.0 mi ESE 6.9 mph - 0.02 in Rain Rain
8:13 AM 39.2 °F 37.0 °F 37.4 °F 93% 29.88 in 1.8 mi ESE 3.5 mph - 0.08 in Rain Heavy Rain
8:20 AM 39.2 °F 37.0 °F 39.2 °F 100% 29.88 in 2.0 mi ESE 3.5 mph - 0.11 in Rain Rain
8:36 AM 39.2 °F 37.0 °F 39.2 °F 100% 29.88 in 2.5 mi ESE 3.5 mph - 0.15 in Rain Rain
8:53 AM 39.9 °F 36.7 °F 39.0 °F 97% 29.88 in 3.0 mi ESE 4.6 mph - 0.18 in Rain Light Rain
9:43 AM 41.0 °F 38.0 °F 39.2 °F 93% 29.85 in 2.0 mi SE 4.6 mph - 0.08 in Rain Heavy Rain
9:53 AM 42.1 °F 40.2 °F 39.9 °F 92% 29.85 in 2.5 mi SSE 3.5 mph - 0.11 in Rain Rain
10:02 AM 42.8 °F 40.1 °F 41.0 °F 93% 29.84 in 4.0 mi SE 4.6 mph - 0.01 in Rain Light Rain
10:28 AM 42.8 °F 38.6 °F 41.0 °F 93% 29.82 in 4.0 mi SE 6.9 mph - 0.03 in Rain Rain
10:37 AM 42.8 °F 38.6 °F 42.8 °F 100% 29.82 in 4.0 mi SE 6.9 mph - 0.04 in Rain Light Rain
10:53 AM 43.0 °F 38.8 °F 42.1 °F 97% 29.82 in 2.0 mi SE 6.9 mph - 0.06 in Rain Light Rain
11:02 AM 42.8 °F 40.1 °F 42.8 °F 100% 29.80 in 3.0 mi SE 4.6 mph - 0.02 in Rain Rain
11:26 AM 42.8 °F 38.6 °F 42.8 °F 100% 29.78 in 2.5 mi ESE 6.9 mph - 0.05 in Rain Rain
11:37 AM 42.8 °F 39.3 °F 42.8 °F 100% 29.78 in 6.0 mi SE 5.8 mph - 0.06 in Rain Light Rain
11:53 AM 43.0 °F 40.3 °F 42.1 °F 97% 29.79 in 4.0 mi SE 4.6 mph - 0.09 in Rain Rain
12:04 PM 42.8 °F 40.1 °F 42.8 °F 100% 29.78 in 1.8 mi SSE 4.6 mph - 0.06 in Rain Heavy Rain
12:25 PM 42.8 °F 40.1 °F 42.8 °F 100% 29.76 in 2.5 mi SE 4.6 mph - 0.15 in Rain Rain
12:32 PM 42.8 °F 40.1 °F 42.8 °F 100% 29.75 in 3.0 mi East 4.6 mph - 0.17 in Rain Rain
12:53 PM 44.1 °F 40.8 °F 43.0 °F 96% 29.75 in 7.0 mi Variable 5.8 mph - 0.21 in Rain Light Rain
1:22 PM 44.6 °F 39.7 °F 42.8 °F 93% 29.74 in 2.5 mi South 9.2 mph - 0.08 in Rain Heavy Rain
1:53 PM 46.0 °F 43.1 °F 44.1 °F 93% 29.68 in 5.0 mi SE 5.8 mph - 0.17 in Rain Light Rain
2:30 PM 46.4 °F 42.9 °F 44.6 °F 93% 29.63 in 10.0 mi SSE 6.9 mph - 0.00 in Rain Light Rain
2:53 PM 46.9 °F - 46.0 °F 97% 29.64 in 2.5 mi South 3.5 mph - 0.05 in Rain Rain
3:01 PM 46.4 °F 43.5 °F 44.6 °F 93% 29.64 in 1.8 mi South 5.8 mph - 0.05 in Rain Heavy Rain
3:13 PM 46.4 °F 44.3 °F 44.6 °F 93% 29.62 in 2.0 mi SSE 4.6 mph - 0.13 in Rain Rain
3:17 PM 46.4 °F 44.3 °F 44.6 °F 93% 29.62 in 3.0 mi SSE 4.6 mph - 0.13 in Rain Rain
3:35 PM 46.4 °F 42.9 °F 44.6 °F 93% 29.61 in 5.0 mi South 6.9 mph - 0.16 in Rain Light Rain
3:53 PM 46.9 °F - 45.0 °F 93% 29.59 in 10.0 mi South 5.8 mph - 0.17 in Rain Light Rain
4:00 PM 46.4 °F 42.9 °F 44.6 °F 93% 29.59 in 9.0 mi SSE 6.9 mph - 0.01 in Rain Light Rain
4:53 PM 48.0 °F - 46.0 °F 93% 29.57 in 3.0 mi South 8.1 mph - 0.06 in Rain Rain
5:15 PM 48.2 °F - 46.4 °F 93% 29.57 in 6.0 mi SSW 9.2 mph - 0.03 in Rain Rain
5:53 PM 48.9 °F - 46.0 °F 90% 29.58 in 10.0 mi West 15.0 mph 23.0 mph 0.06 in Rain Light Rain
5:55 PM 48.2 °F - 46.4 °F 93% 29.59 in 10.0 mi West 16.1 mph 23.0 mph 0.00 in Rain Light Rain
6:11 PM 44.6 °F 34.1 °F 41.0 °F 87% 29.63 in 9.0 mi West 34.5 mph 50.6 mph 0.01 in Rain Light Rain
6:18 PM 42.8 °F 32.3 °F 39.2 °F 87% 29.64 in 5.0 mi West 29.9 mph 44.9 mph 0.02 in Rain Rain
6:53 PM 37.0 °F 24.9 °F 34.0 °F 89% 29.72 in 6.0 mi West 27.6 mph 39.1 mph 0.09 in Rain Light Rain
7:15 PM 33.8 °F 21.6 °F 30.2 °F 87% 29.74 in 2.5 mi West 23.0 mph 39.1 mph 0.01 in Snow Light Snow
7:18 PM 33.8 °F 22.5 °F 30.2 °F 87% 29.74 in 1.8 mi West 19.6 mph 39.1 mph 0.01 in Snow Light Snow
7:32 PM 33.8 °F 21.3 °F 30.2 °F 87% 29.76 in 3.0 mi West 24.2 mph 33.4 mph 0.02 in Snow Light Snow
7:53 PM 33.1 °F 21.9 °F 30.0 °F 89% 29.79 in 6.0 mi West 18.4 mph 26.5 mph 0.02 in Snow Light Snow
8:38 PM 32.0 °F 18.6 °F 28.4 °F 87% 29.79 in 6.0 mi West 25.3 mph 33.4 mph 0.00 in Rain Light Freezing Rain
8:53 PM 32.0 °F 19.8 °F 28.9 °F 88% 29.81 in 5.0 mi West 20.7 mph 32.2 mph 0.00 in Rain Light Freezing Rain
9:29 PM 32.0 °F 19.8 °F 28.4 °F 87% 29.80 in 8.0 mi WNW 20.7 mph 28.8 mph 0.00 in   Overcast
9:53 PM 32.0 °F 20.1 °F 28.9 °F 88% 29.83 in 5.0 mi West 19.6 mph 28.8 mph 0.01 in Snow Light Snow
10:19 PM 30.2 °F 20.2 °F 28.4 °F 93% 29.81 in 4.0 mi West 12.7 mph 21.9 mph 0.00 in Snow Light Snow
10:31 PM 30.2 °F 21.3 °F 28.4 °F 93% 29.81 in 4.0 mi West 10.4 mph - 0.00 in Snow Light Snow
10:50 PM 30.2 °F 17.8 °F 26.6 °F 86% 29.82 in 4.0 mi West 19.6 mph 28.8 mph 0.00 in Snow Light Snow
10:53 PM 30.9 °F 19.1 °F 27.0 °F 85% 29.83 in 4.0 mi West 18.4 mph 28.8 mph 0.00 in Snow Light Snow
11:53 PM 30.0 °F 16.9 °F 25.0 °F 82% 29.83 in 4.0 mi West 21.9 mph 26.5 mph 0.01 in Snow Light Snow